Time,TemperatureF,DewpointF,PressureIn,WindDirection,WindDirectionDegrees,WindSpeedMPH,WindSpeedGustMPH,Humidity,HourlyPrecipIn,Conditions,Clouds,dailyrainin,SoftwareType,DateUTC
2013-03-26 00:08:00,13.9,2.0,30.38,SSW,213,19.0,-999.0,58,-99.99,,,0.00,weatherlink.com 1.10,2013-03-26 06:08:00,
2013-03-26 00:24:00,13.9,2.0,30.38,South,178,15.0,-999.0,58,-99.99,,,0.00,weatherlink.com 1.10,2013-03-26 06:24:00,
2013-03-26 00:40:00,13.9,2.0,30.37,South,190,17.0,-999.0,58,-99.99,,,0.00,weatherlink.com 1.10,2013-03-26 06:40:00,
2013-03-26 00:54:00,13.9,2.0,30.36,SSW,194,18.0,-999.0,59,-99.99,,,0.00,weatherlink.com 1.10,2013-03-26 06:54:00,
2013-03-26 01:09:00,13.8,2.0,30.36,SSW,202,17.0,-999.0,60,-99.99,,,0.00,weatherlink.com 1.10,2013-03-26 07:09:00,
2013-03-26 01:24:00,13.6,2.0,30.34,SSW,202,21.0,-999.0,61,-99.99,,,0.00,weatherlink.com 1.10,2013-03-26 07:24:00,
2013-03-26 01:40:00,13.4,3.0,30.34,SSW,194,18.0,-999.0,62,-99.99,,,0.00,weatherlink.com 1.10,2013-03-26 07:40:00,
2013-03-26 01:55:00,13.4,2.0,30.33,SSW,200,23.0,-999.0,61,-99.99,,,0.00,weatherlink.com 1.10,2013-03-26 07:55:00,
2013-03-26 02:10:00,12.9,2.0,30.32,SSW,206,22.0,-999.0,62,-99.99,,,0.00,weatherlink.com 1.10,2013-03-26 08:10:00,
2013-03-26 02:25:00,13.5,2.0,30.32,SSW,209,25.0,-999.0,60,-99.99,,,0.00,weatherlink.com 1.10,2013-03-26 08:25:00,
2013-03-26 02:40:00,14.3,2.0,30.32,SSW,204,18.0,-999.0,59,-99.99,,,0.00,weatherlink.com 1.10,2013-03-26 08:40:00,
2013-03-26 02:55:00,13.9,2.0,30.31,SSW,207,19.0,-999.0,59,-99.99,,,0.00,weatherlink.com 1.10,2013-03-26 08:55:00,
2013-03-26 03:11:00,14.0,3.0,30.30,SSW,200,20.0,-999.0,62,-99.99,,,0.00,weatherlink.com 1.10,2013-03-26 09:11:00,
2013-03-26 03:26:00,13.8,4.0,30.28,South,183,19.0,-999.0,64,-99.99,,,0.00,weatherlink.com 1.10,2013-03-26 09:26:00,
2013-03-26 03:56:00,14.9,5.0,30.26,SSW,205,19.0,-999.0,65,-99.99,,,0.00,weatherlink.com 1.10,2013-03-26 09:56:00,
2013-03-26 04:11:00,13.7,4.0,30.25,South,189,21.0,-999.0,65,-99.99,,,0.00,weatherlink.com 1.10,2013-03-26 10:11:00,
2013-03-26 04:27:00,14.4,5.0,30.24,SSW,192,22.0,-999.0,65,-99.99,,,0.00,weatherlink.com 1.10,2013-03-26 10:27:00,
2013-03-26 04:42:00,14.3,4.0,30.24,SSW,201,19.0,-999.0,64,-99.99,,,0.00,weatherlink.com 1.10,2013-03-26 10:42:00,
2013-03-26 04:57:00,15.2,5.0,30.23,SSW,199,25.0,-999.0,64,-99.99,,,0.00,weatherlink.com 1.10,2013-03-26 10:57:00,
2013-03-26 05:12:00,15.1,5.0,30.24,SSW,198,24.0,-999.0,64,-99.99,,,0.00,weatherlink.com 1.10,2013-03-26 11:12:00,
2013-03-26 05:27:00,15.0,5.0,30.25,SSW,196,16.0,-999.0,64,-99.99,,,0.00,weatherlink.com 1.10,2013-03-26 11:27:00,
2013-03-26 05:42:00,15.0,5.0,30.24,South,188,20.0,-999.0,65,-99.99,,,0.00,weatherlink.com 1.10,2013-03-26 11:42:00,
2013-03-26 05:57:00,15.1,6.0,30.23,SSW,194,19.0,-999.0,66,-99.99,,,0.00,weatherlink.com 1.10,2013-03-26 11:57:00,
2013-03-26 06:13:00,15.6,6.0,30.22,SSW,204,19.0,-999.0,66,-99.99,,,0.00,weatherlink.com 1.10,2013-03-26 12:13:00,
2013-03-26 06:28:00,15.3,6.0,30.22,SSW,194,18.0,-999.0,66,-99.99,,,0.00,weatherlink.com 1.10,2013-03-26 12:28:00,
2013-03-26 06:43:00,14.6,6.0,30.23,South,175,23.0,-999.0,68,-99.99,,,0.00,weatherlink.com 1.10,2013-03-26 12:43:00,
2013-03-26 06:58:00,15.5,7.0,30.22,South,190,20.0,-999.0,68,-99.99,,,0.00,weatherlink.com 1.10,2013-03-26 12:58:00,
2013-03-26 07:13:00,15.4,7.0,30.22,SSW,202,23.0,-999.0,69,-99.99,,,0.00,weatherlink.com 1.10,2013-03-26 13:13:00,
2013-03-26 07:28:00,16.4,8.0,30.22,SSW,200,18.0,-999.0,69,-99.99,,,0.00,weatherlink.com 1.10,2013-03-26 13:28:00,
2013-03-26 07:44:00,16.6,8.0,30.21,SSW,199,24.0,-999.0,69,-99.99,,,0.00,weatherlink.com 1.10,2013-03-26 13:44:00,
2013-03-26 07:59:00,16.8,9.0,30.20,SSW,192,19.0,-999.0,70,-99.99,,,0.00,weatherlink.com 1.10,2013-03-26 13:59:00,
2013-03-26 08:14:00,17.4,10.0,30.20,SW,215,24.0,-999.0,71,-99.99,,,0.00,weatherlink.com 1.10,2013-03-26 14:14:00,
2013-03-26 08:29:00,18.3,10.0,30.19,South,180,28.0,-999.0,71,-99.99,,,0.00,weatherlink.com 1.10,2013-03-26 14:29:00,
2013-03-26 08:44:00,18.8,11.0,30.19,SSW,196,26.0,-999.0,71,-99.99,,,0.00,weatherlink.com 1.10,2013-03-26 14:44:00,
2013-03-26 08:59:00,19.5,13.0,30.19,SSW,200,23.0,-999.0,76,-99.99,,,0.00,weatherlink.com 1.10,2013-03-26 14:59:00,
2013-03-26 09:15:00,20.7,12.0,30.19,South,179,25.0,-999.0,69,-99.99,,,0.00,weatherlink.com 1.10,2013-03-26 15:15:00,
2013-03-26 09:30:00,21.9,12.0,30.19,SSW,202,18.0,-999.0,67,-99.99,,,0.00,weatherlink.com 1.10,2013-03-26 15:30:00,
2013-03-26 09:45:00,22.7,13.0,30.19,SSW,203,17.0,-999.0,67,-99.99,,,0.00,weatherlink.com 1.10,2013-03-26 15:45:00,
2013-03-26 10:00:00,23.2,13.0,30.18,SW,215,18.0,-999.0,66,-99.99,,,0.00,weatherlink.com 1.10,2013-03-26 16:00:00,
2013-03-26 10:16:00,24.2,14.0,30.18,SSW,205,17.0,-999.0,66,-99.99,,,0.00,weatherlink.com 1.10,2013-03-26 16:16:00,
2013-03-26 10:31:00,24.9,15.0,30.18,SSW,208,24.0,-999.0,65,-99.99,,,0.00,weatherlink.com 1.10,2013-03-26 16:31:00,
2013-03-26 10:46:00,25.4,16.0,30.17,SSW,206,11.0,-999.0,67,-99.99,,,0.00,weatherlink.com 1.10,2013-03-26 16:46:00,
2013-03-26 11:16:00,25.9,18.0,30.17,SSW,206,23.0,-999.0,72,-99.99,,,0.00,weatherlink.com 1.10,2013-03-26 17:16:00,
2013-03-26 11:31:00,26.1,20.0,30.18,SSW,203,13.0,-999.0,76,-99.99,,,0.00,weatherlink.com 1.10,2013-03-26 17:31:00,
2013-03-26 11:46:00,26.8,20.0,30.17,SSW,198,12.0,-999.0,76,-99.99,,,0.00,weatherlink.com 1.10,2013-03-26 17:46:00,
2013-03-26 12:02:00,26.5,21.0,30.17,SSW,211,14.0,-999.0,81,-99.99,,,0.00,weatherlink.com 1.10,2013-03-26 18:02:00,
2013-03-26 12:17:00,26.0,22.0,30.17,SW,226,10.0,-999.0,85,-99.99,,,0.00,weatherlink.com 1.10,2013-03-26 18:17:00,
2013-03-26 12:32:00,26.0,22.0,30.16,SSW,202,10.0,-999.0,86,-99.99,,,0.00,weatherlink.com 1.10,2013-03-26 18:32:00,
2013-03-26 12:47:00,27.8,22.0,30.15,SSW,212,8.0,-999.0,78,-99.99,,,0.00,weatherlink.com 1.10,2013-03-26 18:47:00,
2013-03-26 13:02:00,27.9,22.0,30.15,SW,225,7.0,-999.0,78,-99.99,,,0.00,weatherlink.com 1.10,2013-03-26 19:02:00,
2013-03-26 13:18:00,29.4,21.0,30.13,SSW,201,16.0,-999.0,70,-99.99,,,0.00,weatherlink.com 1.10,2013-03-26 19:18:00,
2013-03-26 13:33:00,30.3,21.0,30.12,SSW,210,15.0,-999.0,68,-99.99,,,0.00,weatherlink.com 1.10,2013-03-26 19:33:00,
2013-03-26 13:48:00,32.9,22.0,30.12,South,180,3.0,-999.0,65,-99.99,,,0.00,weatherlink.com 1.10,2013-03-26 19:48:00,
2013-03-26 14:03:00,31.3,20.0,30.12,South,189,13.0,-999.0,63,-99.99,,,0.00,weatherlink.com 1.10,2013-03-26 20:03:00,
2013-03-26 14:18:00,32.3,20.0,30.12,SW,221,11.0,-999.0,60,-99.99,,,0.00,weatherlink.com 1.10,2013-03-26 20:18:00,
2013-03-26 14:34:00,32.7,19.0,30.11,WSW,257,5.0,-999.0,57,-99.99,,,0.00,weatherlink.com 1.10,2013-03-26 20:34:00,
2013-03-26 14:49:00,33.3,18.0,30.10,SSW,206,3.0,-999.0,54,-99.99,,,0.00,weatherlink.com 1.10,2013-03-26 20:49:00,
2013-03-26 15:04:00,33.0,18.0,30.09,SSW,213,7.0,-999.0,55,-99.99,,,0.00,weatherlink.com 1.10,2013-03-26 21:04:00,
2013-03-26 15:19:00,34.2,19.0,30.09,SSW,206,4.0,-999.0,54,-99.99,,,0.00,weatherlink.com 1.10,2013-03-26 21:19:00,
2013-03-26 15:34:00,31.7,17.0,30.09,SW,228,15.0,-999.0,56,-99.99,,,0.00,weatherlink.com 1.10,2013-03-26 21:34:00,
2013-03-26 15:49:00,31.2,18.0,30.08,SW,224,4.0,-999.0,58,-99.99,,,0.00,weatherlink.com 1.10,2013-03-26 21:49:00,
2013-03-26 16:05:00,32.6,19.0,30.08,WSW,247,6.0,-999.0,57,-99.99,,,0.00,weatherlink.com 1.10,2013-03-26 22:05:00,
2013-03-26 16:20:00,32.7,19.0,30.08,SW,227,13.0,-999.0,58,-99.99,,,0.00,weatherlink.com 1.10,2013-03-26 22:20:00,
2013-03-26 16:35:00,30.5,19.0,30.07,SW,214,7.0,-999.0,62,-99.99,,,0.00,weatherlink.com 1.10,2013-03-26 22:35:00,
2013-03-26 16:50:00,30.8,18.0,30.08,South,173,7.0,-999.0,60,-99.99,,,0.00,weatherlink.com 1.10,2013-03-26 22:50:00,
2013-03-26 17:05:00,30.4,19.0,30.07,South,183,10.0,-999.0,63,-99.99,,,0.00,weatherlink.com 1.10,2013-03-26 23:05:00,
2013-03-26 17:21:00,30.1,19.0,30.08,SSW,207,9.0,-999.0,64,-99.99,,,0.00,weatherlink.com 1.10,2013-03-26 23:21:00,
2013-03-26 18:06:00,29.4,19.0,30.08,WNW,296,0.0,-999.0,64,-99.99,,,0.00,weatherlink.com 1.10,2013-03-27 00:06:00,
2013-03-26 18:21:00,31.4,18.0,30.08,South,171,7.0,-999.0,59,-99.99,,,0.00,weatherlink.com 1.10,2013-03-27 00:21:00,
2013-03-26 18:37:00,30.3,17.0,30.07,South,183,19.0,-999.0,59,-99.99,,,0.00,weatherlink.com 1.10,2013-03-27 00:37:00,
2013-03-26 18:52:00,29.8,17.0,30.07,SSE,167,11.0,-999.0,60,-99.99,,,0.00,weatherlink.com 1.10,2013-03-27 00:52:00,
2013-03-26 19:07:00,29.2,17.0,30.07,SSW,196,10.0,-999.0,61,-99.99,,,0.00,weatherlink.com 1.10,2013-03-27 01:07:00,
2013-03-26 19:22:00,29.1,17.0,30.07,SW,229,8.0,-999.0,61,-99.99,,,0.00,weatherlink.com 1.10,2013-03-27 01:22:00,
2013-03-26 19:37:00,29.1,17.0,30.08,SW,227,8.0,-999.0,61,-99.99,,,0.00,weatherlink.com 1.10,2013-03-27 01:37:00,
2013-03-26 19:53:00,28.8,17.0,30.08,SSW,205,8.0,-999.0,62,-99.99,,,0.00,weatherlink.com 1.10,2013-03-27 01:53:00,
2013-03-26 20:07:00,28.7,17.0,30.08,SSW,213,5.0,-999.0,62,-99.99,,,0.00,weatherlink.com 1.10,2013-03-27 02:07:00,
2013-03-26 20:23:00,29.0,17.0,30.09,South,180,8.0,-999.0,61,-99.99,,,0.00,weatherlink.com 1.10,2013-03-27 02:23:00,
2013-03-26 20:38:00,28.8,17.0,30.09,SW,216,10.0,-999.0,62,-99.99,,,0.00,weatherlink.com 1.10,2013-03-27 02:38:00,
2013-03-26 20:53:00,28.8,17.0,30.09,South,188,3.0,-999.0,62,-99.99,,,0.00,weatherlink.com 1.10,2013-03-27 02:53:00,
2013-03-26 21:09:00,28.5,17.0,30.09,SSW,196,6.0,-999.0,63,-99.99,,,0.00,weatherlink.com 1.10,2013-03-27 03:09:00,
2013-03-26 21:23:00,27.9,19.0,30.09,WSW,244,5.0,-999.0,68,-99.99,,,0.00,weatherlink.com 1.10,2013-03-27 03:23:00,
2013-03-26 21:38:00,27.4,18.0,30.09,West,277,6.0,-999.0,69,-99.99,,,0.00,weatherlink.com 1.10,2013-03-27 03:38:00,
2013-03-26 21:54:00,27.5,19.0,30.08,West,263,4.0,-999.0,69,-99.99,,,0.00,weatherlink.com 1.10,2013-03-27 03:54:00,
2013-03-26 22:09:00,27.6,19.0,30.07,WSW,248,5.0,-999.0,69,-99.99,,,0.00,weatherlink.com 1.10,2013-03-27 04:09:00,
2013-03-26 22:24:00,26.5,19.0,30.06,West,265,7.0,-999.0,72,-99.99,,,0.00,weatherlink.com 1.10,2013-03-27 04:24:00,
2013-03-26 22:39:00,26.3,18.0,30.05,SSW,201,7.0,-999.0,72,-99.99,,,0.00,weatherlink.com 1.10,2013-03-27 04:39:00,
2013-03-26 22:54:00,26.9,19.0,30.05,SSW,194,11.0,-999.0,71,-99.99,,,0.00,weatherlink.com 1.10,2013-03-27 04:54:00,
2013-03-26 23:10:00,25.6,20.0,30.05,SW,222,8.0,-999.0,79,-99.99,,,0.00,weatherlink.com 1.10,2013-03-27 05:10:00,
2013-03-26 23:25:00,25.4,21.0,30.04,SSW,202,11.0,-999.0,83,-99.99,,,0.00,weatherlink.com 1.10,2013-03-27 05:25:00,
2013-03-26 23:40:00,25.1,21.0,30.04,SSW,207,10.0,-999.0,83,-99.99,,,0.00,weatherlink.com 1.10,2013-03-27 05:40:00,